Showing default

IRIDIUM 151, 43074

Orbit data source: Space-Track

IRIDIUM 151, 43074 is a payload satellite owned by Iridium (US) in LEO that was launched on Sat, 23 Dec 2017 UTC via an FALCON 9 launch vehicle from the Air Force Western Test Range (AFWTR). Payloads include a variety of satellites, spacecraft, and rockets equipped with specific instruments for various scientific and technological missions. These include communications satellites like Starlink; space stations such as the ISS; scientific satellites like the Hubble; Earth observation satellites from companies like Planet Labs, Umbra, and HawkEye 360; GPS; miniature CubeSats for education and research; and military/defense satellites.

Loading next visibility...
IRIDIUM 151 details
Identifier
43074, 2017-083E
Orbit
LEO
Last TLE update16 hours ago
Origin
Flag of USIridium (US)
ManufacturerOATK SSG Gilbert
MissionOperational Commercial Communications
Bus & MotorELITEBUS, Unknown motor
Mass860 kg wet, 700 kg dry
Launch date (UTC)
2017-12-23 (7 years ago)
Launch vehicle
FALCON 9
Launch site
Air Force Western Test Range (AFWTR)
Object type
Payload
Rocket body
Debris
Shape & HBRTrap Box + 2 Pan, 9.4 m
Radar Cross Section14.423 m², Large (>1 m²)

Expand to show TLE details & history

TLE from 16 hours ago
0 IRIDIUM 151
1 43074U 17083E   24347.70754320  .00000492  00000-0  16866-3 0  9990
2 43074  86.3994 192.5251 0002051  91.4996 268.6435 14.34214949365098
Epoch: 2024-12-12T16:58Z
Definitive object data (Epoch: 2024-12-12T16:58:51.732Z)
Latitude
Longitude-144.07446°
Altitude780.762 km
Speed7.463 km/s
True Right ascension12h 50m 06s
True Declination0° 00' 00"
Sunlit
Object was in daylight at TLE epoch
Visualization TLE readout
Latitude-71.73076°
Longitude-155.28948°
Altitude805.72 km
Speed7.449 km/s
Apparent Right ascension18h 03m 23s
Apparent Declination-68° 07' 10"
Sunlit
Object is in daylight
Visualization observer readout
Local Sidereal Time07:53:10
Azimuth161.023° S
Elevation-58.114°
Doppler factor1
Orbital elements
Apogee altitude776.108 km
Perigee altitude773.174 km
Semi-major axis7,152.778 km
Eccentricity0.0002051
Inclination86.3994°
RAAN192.5251°
Arg. of periapsis91.4996°
True anomaly268.62°
Mean anomaly268.6435°
Eccentric anomaly268.63175°
Mean motion3.58782 °/min
BSTAR0.00016866
Orbital period100.34 mins
Loading maneuver chart data...
Loading historical data...
Loading historical data...
Loading historical data...
Loading historical data...
Loading historical data...
Loading historical data...
Loading historical data...

IRIDIUM 151 Visibility forecast

Observer location: undefined°, undefined

Span
Click to sort rows by Start time (UTC) header in descending order
Start Az.
Max El. time (UTC)
Max El. Az.
Max El.
End time (UTC)
End Az.
5 mins2024-12-13 13:13:25.085Z111.805° ESE2024-12-13 13:15:25.085Z86.523° E16.579°2024-12-13 13:18:25.085Z46.95° ENE
8 mins2024-12-13 14:52:25.085Z205.514° SW2024-12-13 14:56:25.085Z286.568° WNW37.359°2024-12-13 15:00:25.085Z348.812° N
8 mins2024-12-14 01:23:25.085Z23.273° NE2024-12-14 01:26:25.085Z77.244° E32.502°2024-12-14 01:31:25.085Z151.567° SSE
6 mins2024-12-14 03:04:25.085Z316.046° NNW2024-12-14 03:07:25.085Z271.872° WNW20.352°2024-12-14 03:10:25.085Z233.524° WSW
|